Starlink 11694

operational
NORAD ID: 64243 Int'l Des: 2025-119 Owner: SPXS Country: US Constellation: starlink
LEOCIRCULAR

Über Starlink 11694

Beschreibung wird geladen...

Live-Position

3D-Globus wird geladen...

Nächste Überflüge

Höhenverlauf

Altitude vs Time

uPlot chart will show altitude changes over time

Zweizeiliger Elementsatz

1 64243U 25119L 25261.14911132 .00234413 00000-0 17626-2 0 9996
2 64243 43.0022 169.5708 0003488 258.9613 101.0862 15.71061063 18103
Epoch: 18. Sept. 2025 • Age: 23 hours

Aktueller Status

Höhe 354.4 km
Geschwindigkeit 7.70 km/s
Subsatellitenpunkt 2.54°N, 131.11°E
Startdatum 3. Juni 2025
Alter 0.2 years
Typ internet

Technische Details

Klassifizierung Payload
Masse 960.00 kg
Trockenmasse 910.00 kg
Gesamtmasse 960.00 kg
Länge 0.30 m
Durchmesser 4.10 m
Spannweite 29.00 m
Form Box + pan
Hersteller SPXS
Bus-Typ Starlink V2MD
Phasenstatus In Orbit
Besitzer/Staat SPXS/US

Große Konstellationen

Loading constellations...